Phoenix Deer Valley, AZ

8:09 PM MST on November 12, 2019 (GMT -0700)
Phoenix-Deer Valley Municipal

Weather History for KDVT - September, 2019

Change the Weather History Date:

Friday, September 13, 2019

  Actual Average Record
Temperature  
Mean Temperature 90 °F -  
Max Temperature 102 °F 96 °F 106 °F (2000)
Min Temperature 78 °F 75 °F 70 °F (2005)
Cooling Degree Days 25    
Growing Degree Days 40 (Base 50)    
Moisture  
Dew Point 38 °F    
Average Humidity 16    
Maximum Humidity 24    
Minimum Humidity 10    
Precipitation  
Precipitation 0.00 in - - ()
Sea Level Pressure  
Sea Level Pressure 29.83 in    
Wind  
Wind Speed 5 mph ()    
Max Wind Speed 9 mph    
Max Gust Speed -    
Visibility 10.0 miles    
Events      
Averages and records for this station are not official NWS values.
T = Trace of Precipitation, MM = Missing Value Source: Averaged Metar Reports

Daily Weather History Graph

Daily Weather History Graph

Search for Another Location

Airport or City:

Astronomy

Sep. 13, 2019 Rise Set
Actual Time 6:10 AM MST 6:37 PM MST
Civil Twilight 5:45 AM MST 7:02 PM MST
Nautical Twilight 5:15 AM MST 7:32 PM MST
Astronomical Twilight 4:45 AM MST 8:01 PM MST
Moon 6:49 PM MST 5:35 AM MST
Length of Visible Light 13h 17m
Length of Day
12h 27m
Full, 100% of the Moon is Illuminated
Sep 13
Full
Sep 13
Full
Sep 21
Last Quarter
Sep 28
New
Oct 5
First Quarter

Hourly Weather History & Observations

Time (MST) Temp. Dew Point Humidity Pressure Visibility Wind Dir Wind Speed Gust Speed Precip Events Conditions
12:53 AM 82.0 °F 39.9 °F 22% 29.83 in 10.0 mi NNE 9.2 mph - N/A   Clear
1:53 AM 80.1 °F 37.0 °F 21% 29.83 in 10.0 mi East 3.5 mph - N/A   Clear
2:53 AM 82.0 °F 34.0 °F 18% 29.83 in 10.0 mi NNE 9.2 mph - N/A   Clear
3:53 AM 81.0 °F 33.1 °F 18% 29.83 in 10.0 mi NNE 5.8 mph - N/A   Clear
4:53 AM 79.0 °F 32.0 °F 18% 29.84 in 10.0 mi NNE 6.9 mph - N/A   Clear
5:53 AM 78.1 °F 32.0 °F 19% 29.85 in 10.0 mi NNE 5.8 mph - N/A   Clear
6:53 AM 79.0 °F 33.1 °F 19% 29.87 in 10.0 mi NNE 8.1 mph - N/A   Clear
7:53 AM 84.0 °F 33.1 °F 16% 29.88 in 10.0 mi NNE 6.9 mph - N/A   Clear
8:53 AM 91.0 °F 32.0 °F 12% 29.89 in 10.0 mi Calm Calm - N/A   Clear
9:53 AM 91.0 °F 37.0 °F 15% 29.90 in 10.0 mi South 4.6 mph - N/A   Clear
10:53 AM 95.0 °F 36.0 °F 13% 29.90 in 10.0 mi South 4.6 mph - N/A   Clear
11:53 AM 98.1 °F 35.1 °F 11% 29.88 in 10.0 mi WSW 6.9 mph - N/A   Clear
12:16 PM 99.0 °F 36.0 °F 11% 29.95 in 10.0 mi Variable 5.8 mph - N/A   Clear
12:53 PM 100.0 °F 36.0 °F 11% 29.85 in 10.0 mi Variable 3.5 mph - N/A   Clear
1:53 PM 100.9 °F 35.1 °F 10% 29.82 in 10.0 mi South 5.8 mph - N/A   Clear
2:53 PM 102.9 °F 37.0 °F 10% 29.78 in 10.0 mi West 8.1 mph - N/A   Clear
3:53 PM 102.0 °F 39.9 °F 12% 29.77 in 10.0 mi WSW 6.9 mph - N/A   Clear
4:53 PM 102.0 °F 39.9 °F 12% 29.76 in 10.0 mi WNW 4.6 mph - N/A   Clear
5:53 PM 100.9 °F 41.0 °F 13% 29.76 in 10.0 mi NW 4.6 mph - N/A   Clear
6:53 PM 99.0 °F 42.1 °F 14% 29.76 in 10.0 mi West 8.1 mph - N/A   Clear
7:53 PM 93.9 °F 43.0 °F 17% 29.77 in 10.0 mi WNW 5.8 mph - N/A   Clear
8:53 PM 91.9 °F 45.0 °F 20% 29.78 in 10.0 mi NNW 5.8 mph - N/A   Clear
9:53 PM 90.0 °F 44.1 °F 20% 29.80 in 10.0 mi NW 3.5 mph - N/A   Clear
10:53 PM 87.1 °F 44.1 °F 22% 29.81 in 10.0 mi Calm Calm - N/A   Clear
11:53 PM 84.9 °F 44.1 °F 24% 29.82 in 10.0 mi NNE 4.6 mph - N/A   Clear